Location: Sternwarte_Laufen
(47.9344°N, 12.9346°E)
Time: 09:19:29
(UTC+01:00)

ISS - Pass Details

Date: 10 November 2018
Orbit: 401 x 408 km, 51.6° (Epoch: 20 November)

Event Time Altitude Azimuth Distance (km) Brightness Sun altitude
Exits shadow 05:58:24 20° 284° (WNW) 1,022 -2.5 -11.6°
Maximum altitude 06:00:30 60° 209° (SSW) 470 -3.6 -11.3°
Drops below altitude 10° 06:03:44 10° 129° (SE) 1,462 0.1 -10.7°
Sets 06:05:50 0° 125° (SE) 2,320 1.5 -10.4°
